Погода в Баничах

Украина / Сумская область     51°30′42″N   33°55′12″E
темп.,
°C
ветер,
м/с
пор.,
м/с
влажн.,
%
обл.,
%
осадки,
мм/ч
давл.,
гПа
погр.,
м
13 апреля, вт
вт1300:00+11ююв357940 0.0 102167
03:00+9ююв339091 0.0 102137
06:00+9юв359168 0.0 102187
09:00+11ююв3686100 0.0 1021267
12:00+14ююв4873100 0.0 1021773
15:00+16ююв4764100 0.0 1020990
18:00+15вюв466893 0.2 1019352
21:00+12ююв348078 0.2 1019102
14 апреля, ср
ср1400:00+11ю268699 0.0 1019207
03:00+10ююв2588100 0.0 1019182
06:00+9ююв3588100 0.0 1018182
09:00+10ююв3679100 0.0 1018347
12:00+12ююв3472100 0.0 1017695
15:00+15юв3459100 0.0 10161202
18:00+14вюв456599 0.1 1015486
21:00+10вюв3687100 0.5 1016103
15 апреля, чт
чт1500:00+9ююв2286100 0.1 101527
03:00+9вюв2285100 0.1 101521
06:00+9вюв2387100 0.0 101477
09:00+12вюв347591 0.1 1014318
12:00+14в336298 0.6 1014698
15:00+16вюв234966 0.9 10121514
18:00+14всв3464100 0.7 1012244
21:00
16 апреля, пт
пт1600:00+10в228491 0.0 101123
03:00+8ююз2389100 0.1 101145
06:00+9юв2591100 0.1 1011167
09:00+9ююв368632 0.6 1012509
12:00+12юв5659100 0.0 10131479
15:00+12юв575898 0.0 10131328
18:00+10ююв5766100 0.0 10151143
21:00+9ю1164100 0.0 101722
17 апреля, сб
сб1700:00+6вюв33855 0.0 101756
03:00+5ююв22935 0.0 101823
06:00+4зюз1191100 0.0 101910
09:00+7юз107497 0.0 1020253
12:00+12св235851 0.0 10201309
15:00+13св2355100 0.1 10201280
18:00+12ссв5669100 0.3 1020686
21:00+10ссв4992100 1.5 1021527